Vertical_Velocity
0 -1 2 -3 -5 -7 -7 4 -2 -0 5 2 1 3 1 -0 2 2 2 0 1 1 0 1 1 1 1 -0 1 0 0 -0 -1 -1 -1 1 0 -0 -1 -0 0 -0 -1 -2 -2
-1 -0 -7 -11 -10 9 38 -2 -3 -1 3 3 2 3 3 1 -1 1 3 -0 -1 0 1 1 -1 1 -1 -1 -1 0 -0 -1 0 -1 -2 -1 -0 0 -1 -1 2 -1 -4 -1 -0
5 7 5 -8 14 -7 -0 -2 -0 2 3 4 3 4 1 1 -1 -0 2 0 -2 1 -1 1 -0 0 -0 -0 -0 -0 -1 -0 -0 -1 -1 -1 -2 -3 -4 2 2 -3 3 -2 -3
-11 -8 -29 -11 -4 55 -2 2 1 -1 3 5 4 3 1 0 -2 -1 -0 -1 1 1 -2 1 -1 0 -1 -1 1 -1 0 -1 -1 -1 -2 -3 -3 -5 -4 3 -6 0 -2 -0 -1
0 3 25 34 27 1 3 3 -1 -0 2 4 3 3 1 1 1 -0 -0 -2 -1 1 2 -1 0 1 -2 -1 0 -0 1 -1 -2 -3 -2 -2 -2 -3 1 -1 -2 -2 -3 -2 -1
2 -6 0 -0 0 -0 1 2 -0 -1 3 1 2 1 1 1 2 2 1 -0 1 2 -1 1 -1 -1 -2 -0 -2 2 -2 -2 -2 -2 -4 -5 -3 -2 3 -2 -1 -3 0 -2 0
-6 1 -3 -4 -1 4 0 2 -1 0 0 1 0 1 -1 -2 -1 1 0 0 -0 -1 -0 -0 -2 0 -2 -2 -3 -1 -1 -3 -4 -3 -5 -4 -5 2 -1 -1 -3 -0 -2 -1 -0
12 -8 -6 -4 -3 -6 -1 -4 -1 -3 -1 2 -1 1 -2 -1 -2 -1 -0 -0 -2 1 -0 -3 -2 -2 -3 -0 -3 -4 -3 -2 -2 -3 -2 2 -16 4 -1 -3 -2 2 -2 -2 -2
3 0 -1 2 2 3 2 -5 -4 -4 -2 -2 -2 -1 -3 -0 -1 -3 -0 -1 -1 -2 -3 -2 -0 -1 -2 -1 -3 -2 -2 -1 -1 -1 -0 3 -13 2 -1 -7 -1 -2 -2 -3 -2
1 4 0 0 1 -1 -1 -3 -3 -1 -1 -0 -1 -1 -0 -0 -2 -1 -0 -0 -2 -3 -1 -2 -2 -1 -1 -1 -2 -2 -1 -1 -1 -6 -1 0 -12 6 -0 -3 -3 -3 -3 -2 -3
0 -3 -2 -4 -4 2 -5 0 -0 -2 -2 -2 -0 -0 -2 -0 -0 1 0 -2 -2 -0 0 -1 -2 -1 -1 -1 -1 -1 -1 -2 0 -2 -8 -1 -4 -2 -2 -2 -3 -2 -2 -2 -1
-2 -1 -2 -1 -1 -2 1 -0 -3 -4 -6 -1 -2 -1 -1 -1 -1 -1 -1 -1 -0 -1 -1 -2 -2 -1 -0 -1 -1 -1 -1 -1 -3 -1 -6 1 -1 -2 -1 -2 -2 -2 -0 -1 -2
1 1 4 1 5 3 2 0 1 2 -2 0 1 0 0 -1 -2 -2 -2 -1 -2 0 -1 -2 -1 -1 -1 -1 -2 -1 -1 -1 -1 -3 -1 -3 -2 -1 -1 -1 -2 -1 -1 -2 0
0 -0 -1 1 -4 -2 4 3 3 0 -2 -1 -2 -1 1 1 -1 -1 -1 -1 0 -0 -1 -0 -1 -1 -2 -1 -1 1 -0 -1 -2 -3 -2 1 -8 -1 -1 -4 -3 -1 -0 -0 -3
-4 -4 -1 -1 -3 -0 -1 1 -0 -2 -8 -1 -2 1 -1 -1 0 -2 -0 0 -2 -2 -2 -1 -0 -1 -0 -2 -2 -3 -2 -1 -1 -1 -0 -0 1 -2 -2 -3 -2 0 -1 -2 -3
-0 -0 2 2 2 -2 -2 -1 -0 -1 -5 -1 0 0 0 -0 -1 1 -0 -2 -1 -1 -2 -1 -1 -2 -1 -2 -1 0 -0 1 -1 0 -1 -0 0 -8 -3 -2 -2 -3 -2 -2 -3
-2 -1 -3 -1 -0 -0 2 3 -0 -4 -1 -2 -1 -1 -1 -1 -1 -1 -1 -1 0 -1 -2 -2 -1 1 0 1 1 -1 -0 -1 -5 -2 -6 0 -0 -9 -3 -3 -1 -1 -3 -3 -3
-3 -1 -0 2 1 -0 -1 -2 -5 -0 -1 0 -2 -2 -2 -2 -2 -1 -2 -2 -1 0 0 1 0 1 -0 -0 -0 -0 -0 -1 -3 -2 -4 -0 -8 -4 -2 -2 -2 -1 -1 -0 -0
1 0 2 -1 -2 -1 -2 -2 -0 2 2 -1 -1 0 0 -0 -0 -1 -1 -0 -0 -0 -1 -2 -0 -0 -1 0 -0 -1 -2 -1 -1 -0 0 -0 -3 1 -2 -1 -0 1 0 -1 -0
-1 1 0 1 0 -3 -2 -6 -4 -2 -2 -0 2 1 1 1 0 0 1 0 0 -1 -2 -3 -2 -1 -1 -1 -1 1 -0 -1 -1 -4 -3 -4 -4 -5 0 1 1 -1 -1 -1 -0
0 -1 0 1 -0 -1 -3 -5 -1 -2 -2 -2 -2 -2 -2 -1 -1 -1 -1 -2 -2 -2 -1 -0 1 -0 0 -1 -1 -3 -3 -2 -1 -1 -3 -1 -12 -1 -3 -2 -1 -0 -2 1 1
0 -1 -1 -2 -1 -1 0 0 0 1 -2 -1 -2 -2 -2 -2 -1 -1 -1 -2 -1 1 -0 -0 0 -1 1 1 0 1 1 1 -0 -1 1 -0 -33 -1 -1 -1 2 4 2 0 -2
3 1 -0 -0 -2 -1 -1 -1 -1 -1 -1 0 0 -1 -1 -1 -1 -1 -1 -1 -2 -0 -0 -1 -2 -4 -1 -1 0 -3 1 1 0 1 -5 -2 -20 1 3 3 5 1 1 -2 -1
-2 0 2 2 0 -1 -0 1 1 -1 -1 -0 0 -1 -0 -1 -1 -2 -0 -0 -1 -1 -1 -1 -2 -2 -5 2 4 1 3 3 6 3 -5 -24 -19 10 7 6 4 1 1 -1 -1
-3 -1 -2 -1 1 0 -0 -1 -1 -1 -1 -0 0 -1 -2 -3 -2 -2 -1 1 2 2 2 1 -3 1 -1 -4 1 1 -1 5 -3 5 -8 4 -14 4 3 3 1 0 2 1 0
0 -1 -2 -2 -0 1 0 -1 -0 0 1 0 -1 -1 -1 -0 1 -2 2 2 1 -2 -1 -1 -4 -1 -7 -3 0 -8 4 3 4 3 -17 9 -31 21 4 6 5 4 1 2 2
-1 -1 1 1 -1 -3 -1 1 1 -0 -1 1 1 0 2 2 -0 1 -1 1 3 0 3 2 -1 1 -8 -0 -3 -10 -1 0 2 3 7 -5 5 7 2 1 1 -2 3 -2 -1
Height
3006 3013 3020 3027 3036 3044 3050 3058 3066 3071 3078 3083 3088 3094 3098 3103 3109 3113 3117 3122 3125 3128 3131 3134 3137 3139 3141 3143 3145 3146 3148 3148 3149 3150 3152 3153 3154 3154 3154 3153 3153 3153 3151 3151 3150
3011 3017 3023 3029 3038 3046 3049 3058 3067 3073 3079 3086 3090 3095 3100 3105 3110 3116 3120 3122 3125 3128 3131 3134 3137 3139 3141 3143 3145 3146 3147 3147 3148 3149 3150 3151 3152 3152 3152 3150 3151 3149 3147 3147 3146
3015 3020 3024 3031 3036 3048 3052 3060 3069 3076 3082 3088 3093 3098 3103 3107 3112 3117 3120 3123 3126 3129 3131 3134 3136 3138 3141 3143 3144 3145 3146 3147 3147 3148 3149 3149 3150 3149 3149 3149 3147 3145 3145 3143 3141
3023 3025 3028 3031 3035 3045 3056 3066 3073 3079 3085 3091 3095 3100 3104 3110 3116 3117 3121 3124 3127 3129 3132 3134 3135 3138 3140 3142 3143 3144 3145 3146 3147 3147 3147 3147 3147 3147 3146 3145 3143 3143 3141 3139 3137
3027 3028 3029 3037 3045 3053 3063 3070 3077 3083 3089 3093 3097 3102 3107 3112 3115 3118 3122 3125 3128 3130 3132 3134 3135 3137 3139 3142 3143 3143 3144 3145 3145 3145 3145 3144 3144 3143 3142 3140 3138 3138 3136 3133 3131
3034 3037 3040 3047 3052 3061 3069 3077 3083 3087 3093 3097 3101 3105 3110 3114 3116 3119 3122 3125 3128 3130 3132 3134 3136 3138 3140 3141 3143 3143 3143 3143 3143 3143 3142 3141 3140 3137 3138 3135 3133 3132 3129 3127 3125
3043 3045 3050 3057 3065 3073 3078 3083 3088 3093 3097 3101 3105 3108 3111 3116 3117 3120 3124 3126 3128 3131 3133 3135 3137 3140 3140 3141 3142 3142 3142 3141 3141 3140 3138 3137 3137 3133 3131 3129 3129 3126 3124 3121 3119
3051 3054 3060 3067 3073 3080 3084 3089 3093 3097 3101 3105 3108 3111 3114 3117 3119 3122 3125 3127 3129 3131 3133 3136 3138 3139 3140 3140 3140 3141 3140 3139 3137 3136 3135 3133 3130 3127 3125 3124 3124 3122 3119 3117 3114
3063 3066 3070 3075 3079 3085 3090 3095 3098 3102 3106 3109 3113 3115 3118 3119 3121 3124 3126 3129 3130 3132 3134 3136 3137 3138 3139 3139 3139 3139 3138 3136 3135 3133 3131 3129 3126 3123 3121 3118 3118 3117 3115 3113 3110
3077 3079 3082 3086 3089 3093 3096 3099 3103 3106 3110 3112 3116 3120 3121 3122 3123 3125 3127 3129 3131 3133 3135 3136 3137 3137 3137 3137 3137 3137 3136 3134 3132 3131 3128 3124 3120 3120 3115 3113 3114 3113 3112 3110 3107
3086 3089 3092 3094 3096 3099 3101 3103 3109 3112 3113 3115 3118 3119 3121 3124 3126 3127 3128 3130 3132 3133 3134 3134 3136 3136 3136 3135 3135 3135 3134 3131 3130 3127 3124 3120 3116 3113 3111 3111 3111 3111 3109 3107 3104
3099 3101 3101 3102 3103 3104 3106 3109 3111 3115 3117 3118 3120 3122 3124 3125 3127 3128 3130 3132 3132 3133 3133 3135 3134 3135 3135 3134 3134 3133 3132 3129 3126 3125 3122 3116 3113 3111 3110 3110 3110 3108 3106 3104 3102
3103 3105 3105 3107 3107 3109 3110 3113 3115 3117 3118 3122 3124 3125 3126 3128 3128 3129 3131 3131 3132 3132 3132 3133 3135 3134 3134 3134 3133 3131 3130 3127 3125 3121 3118 3115 3110 3109 3109 3108 3107 3106 3104 3102 3099
3111 3111 3112 3113 3114 3115 3117 3118 3119 3120 3123 3128 3128 3129 3129 3129 3130 3130 3131 3133 3132 3133 3133 3134 3134 3134 3133 3133 3132 3130 3128 3125 3122 3120 3118 3116 3111 3107 3106 3106 3106 3104 3102 3099 3098
3118 3118 3118 3118 3119 3120 3122 3121 3121 3123 3126 3132 3130 3130 3130 3132 3132 3132 3132 3132 3132 3133 3135 3134 3133 3133 3133 3132 3131 3129 3126 3122 3119 3117 3116 3114 3113 3103 3103 3104 3103 3101 3099 3096 3094
3122 3122 3122 3122 3122 3123 3122 3122 3123 3125 3127 3130 3130 3130 3131 3131 3132 3132 3132 3133 3133 3132 3132 3132 3132 3132 3132 3130 3129 3127 3124 3120 3117 3115 3115 3112 3112 3099 3100 3101 3099 3097 3096 3094 3091
3125 3125 3125 3125 3124 3122 3121 3122 3124 3123 3131 3132 3131 3131 3132 3133 3133 3132 3133 3133 3132 3132 3131 3130 3130 3130 3129 3129 3127 3126 3124 3120 3121 3117 3115 3111 3110 3096 3097 3097 3096 3095 3094 3092 3090
3128 3127 3126 3125 3123 3122 3122 3124 3123 3127 3128 3131 3132 3133 3134 3133 3133 3133 3133 3132 3132 3131 3130 3129 3129 3129 3128 3128 3127 3125 3125 3124 3129 3125 3114 3108 3101 3093 3093 3093 3093 3093 3091 3089 3086
3129 3129 3127 3126 3125 3125 3125 3124 3126 3128 3131 3132 3132 3133 3133 3133 3134 3133 3132 3132 3132 3131 3131 3129 3128 3128 3127 3127 3128 3125 3125 3125 3123 3121 3119 3102 3094 3091 3090 3091 3091 3090 3088 3086 3084
3131 3130 3129 3128 3128 3128 3128 3127 3129 3130 3131 3133 3133 3133 3133 3133 3134 3132 3132 3132 3132 3131 3130 3130 3127 3126 3126 3126 3125 3124 3125 3124 3122 3125 3121 3100 3094 3088 3089 3090 3090 3089 3086 3084 3080
3133 3132 3132 3131 3131 3131 3131 3130 3131 3132 3133 3134 3133 3133 3133 3133 3132 3132 3133 3133 3131 3130 3129 3128 3127 3126 3124 3123 3122 3122 3122 3122 3123 3122 3122 3118 3090 3088 3087 3088 3088 3086 3083 3080 3076
3134 3134 3133 3133 3134 3131 3131 3130 3131 3132 3132 3133 3133 3133 3132 3132 3132 3131 3131 3131 3130 3130 3128 3127 3125 3122 3121 3120 3119 3118 3118 3119 3120 3120 3117 3116 3091 3085 3086 3087 3085 3083 3080 3075 3070
3133 3133 3133 3132 3133 3132 3131 3131 3131 3131 3131 3131 3132 3132 3132 3132 3132 3130 3130 3130 3129 3129 3128 3127 3124 3122 3119 3120 3117 3115 3116 3116 3117 3117 3111 3113 3087 3084 3084 3084 3082 3077 3073 3069 3066
3134 3132 3131 3131 3131 3131 3131 3131 3131 3131 3131 3131 3131 3131 3131 3130 3130 3129 3129 3128 3128 3127 3126 3124 3121 3120 3119 3117 3116 3112 3112 3112 3113 3108 3101 3085 3077 3082 3082 3080 3076 3073 3069 3065 3063
3133 3132 3131 3130 3130 3129 3130 3130 3130 3130 3130 3129 3129 3129 3129 3129 3128 3126 3126 3125 3125 3123 3122 3120 3115 3114 3113 3111 3108 3102 3101 3101 3098 3098 3095 3075 3075 3073 3077 3073 3070 3066 3064 3061 3059
3133 3132 3131 3130 3129 3129 3128 3128 3128 3127 3128 3127 3127 3126 3126 3125 3125 3124 3123 3122 3121 3119 3118 3116 3112 3108 3100 3102 3098 3091 3089 3087 3086 3085 3081 3076 3068 3075 3073 3070 3067 3063 3059 3056 3054
3131 3130 3130 3129 3128 3128 3127 3126 3126 3126 3126 3124 3124 3123 3122 3122 3120 3119 3117 3117 3115 3114 3113 3111 3109 3107 3097 3096 3092 3083 3078 3077 3078 3076 3075 3070 3068 3068 3067 3066 3062 3059 3057 3054 3050